# Tabular Observed and Forecast Hydrograph Information
#
# Location: East Walker River - Strosnider Ditch (EWSN2)
#
# File Generation Time: 05/10/2026 at 06:56 AM PDT
# Data Interval: 1 Hour
#
# Most Recent Date & Time of Maximum Observed: 05/10/2026 at 06:00 AM PDT
# Maximum Observed Stage: 3.88 Feet
# Maximum Observed Flow: 143 cfs
#
# Earliest Date & Time of Maximum Forecast: 05/10/2026 at 07:00 AM PDT
# Maximum Forecast Stage: 3.88 Feet
# Maximum Forecast Flow: 143 cfs
#
# OBSERVED
#
# Date & Time (Local) Stage (Feet) Flow (cfs) Trend Observed Status
# ---------------------------------------------------------------------------------
05/05/2026 06 AM PDT 3.56 104 Normal
05/05/2026 07 AM PDT 3.58 106 + Normal
05/05/2026 08 AM PDT 3.59 107 + Normal
05/05/2026 09 AM PDT 3.59 107 0 Normal
05/05/2026 10 AM PDT 3.58 106 - Normal
05/05/2026 11 AM PDT 3.57 105 - Normal
05/05/2026 12 PM PDT 3.56 104 - Normal
05/05/2026 01 PM PDT 3.56 104 0 Normal
05/05/2026 02 PM PDT 3.57 105 + Normal
05/05/2026 03 PM PDT 3.56 104 - Normal
05/05/2026 04 PM PDT 3.60 109 + Normal
05/05/2026 05 PM PDT 3.60 109 0 Normal
05/05/2026 06 PM PDT 3.62 111 + Normal
05/05/2026 07 PM PDT 3.62 111 0 Normal
05/05/2026 08 PM PDT 3.62 111 0 Normal
05/05/2026 09 PM PDT 3.62 111 0 Normal
05/05/2026 10 PM PDT 3.62 111 0 Normal
05/05/2026 11 PM PDT 3.62 111 0 Normal
05/06/2026 12 AM PDT 3.61 110 - Normal
05/06/2026 01 AM PDT 3.61 110 0 Normal
05/06/2026 02 AM PDT 3.60 109 - Normal
05/06/2026 03 AM PDT 3.59 107 - Normal
05/06/2026 04 AM PDT 3.58 106 - Normal
05/06/2026 05 AM PDT 3.58 106 0 Normal
05/06/2026 06 AM PDT 3.59 107 + Normal
05/06/2026 07 AM PDT 3.60 109 + Normal
05/06/2026 08 AM PDT 3.60 109 0 Normal
05/06/2026 09 AM PDT 3.59 107 - Normal
05/06/2026 10 AM PDT 3.59 107 0 Normal
05/06/2026 11 AM PDT 3.59 107 0 Normal
05/06/2026 12 PM PDT 3.55 103 - Normal
05/06/2026 01 PM PDT 3.54 102 - Normal
05/06/2026 02 PM PDT 3.52 99 - Normal
05/06/2026 03 PM PDT 3.52 99 0 Normal
05/06/2026 04 PM PDT 3.53 100 + Normal
05/06/2026 05 PM PDT 3.56 104 + Normal
05/06/2026 06 PM PDT 3.57 105 + Normal
05/06/2026 07 PM PDT 3.60 109 + Normal
05/06/2026 08 PM PDT 3.62 111 + Normal
05/06/2026 09 PM PDT 3.63 112 + Normal
05/06/2026 10 PM PDT 3.63 112 0 Normal
05/06/2026 11 PM PDT 3.64 113 + Normal
05/07/2026 12 AM PDT 3.64 113 0 Normal
05/07/2026 01 AM PDT 3.64 113 0 Normal
05/07/2026 02 AM PDT 3.64 113 0 Normal
05/07/2026 03 AM PDT 3.63 112 - Normal
05/07/2026 04 AM PDT 3.64 113 + Normal
05/07/2026 05 AM PDT 3.63 112 - Normal
05/07/2026 06 AM PDT 3.63 112 0 Normal
05/07/2026 07 AM PDT 3.64 113 + Normal
05/07/2026 08 AM PDT 3.64 113 0 Normal
05/07/2026 09 AM PDT 3.63 112 - Normal
05/07/2026 10 AM PDT 3.63 112 0 Normal
05/07/2026 11 AM PDT 3.62 111 - Normal
05/07/2026 12 PM PDT 3.58 106 - Normal
05/07/2026 01 PM PDT 3.58 106 0 Normal
05/07/2026 02 PM PDT 3.57 105 - Normal
05/07/2026 03 PM PDT 3.57 105 0 Normal
05/07/2026 04 PM PDT 3.56 104 - Normal
05/07/2026 05 PM PDT 3.58 106 + Normal
05/07/2026 06 PM PDT 3.62 111 + Normal
05/07/2026 07 PM PDT 3.67 117 + Normal
05/07/2026 08 PM PDT 3.70 121 + Normal
05/07/2026 09 PM PDT 3.72 123 + Normal
05/07/2026 10 PM PDT 3.73 124 + Normal
05/07/2026 11 PM PDT 3.75 127 + Normal
05/08/2026 12 AM PDT 3.76 128 + Normal
05/08/2026 01 AM PDT 3.76 128 0 Normal
05/08/2026 02 AM PDT 3.77 129 + Normal
05/08/2026 03 AM PDT 3.78 131 + Normal
05/08/2026 04 AM PDT 3.78 131 0 Normal
05/08/2026 05 AM PDT 3.79 132 + Normal
05/08/2026 06 AM PDT 3.80 133 + Normal
05/08/2026 07 AM PDT 3.80 133 0 Normal
05/08/2026 08 AM PDT 3.81 134 + Normal
05/08/2026 09 AM PDT 3.81 134 0 Normal
05/08/2026 10 AM PDT 3.81 134 0 Normal
05/08/2026 11 AM PDT 3.79 132 - Normal
05/08/2026 12 PM PDT 3.82 136 + Normal
05/08/2026 01 PM PDT 3.82 136 0 Normal
05/08/2026 02 PM PDT 3.83 137 + Normal
05/08/2026 03 PM PDT 3.80 133 - Normal
05/08/2026 04 PM PDT 3.79 132 - Normal
05/08/2026 05 PM PDT 3.79 132 0 Normal
05/08/2026 06 PM PDT 3.80 133 + Normal
05/08/2026 07 PM PDT 3.81 134 + Normal
05/08/2026 08 PM PDT 3.81 134 0 Normal
05/08/2026 09 PM PDT 3.81 134 0 Normal
05/08/2026 10 PM PDT 3.81 134 0 Normal
05/08/2026 11 PM PDT 3.83 137 + Normal
05/09/2026 12 AM PDT 3.85 139 + Normal
05/09/2026 01 AM PDT 3.86 141 + Normal
05/09/2026 02 AM PDT 3.87 142 + Normal
05/09/2026 03 AM PDT 3.87 142 0 Normal
05/09/2026 04 AM PDT 3.87 142 0 Normal
05/09/2026 05 AM PDT 3.87 142 0 Normal
05/09/2026 06 AM PDT 3.87 142 0 Normal
05/09/2026 07 AM PDT 3.85 139 - Normal
05/09/2026 08 AM PDT 3.84 138 - Normal
05/09/2026 09 AM PDT 3.84 138 0 Normal
05/09/2026 10 AM PDT 3.84 138 0 Normal
05/09/2026 11 AM PDT 3.84 138 0 Normal
05/09/2026 12 PM PDT 3.84 138 0 Normal
05/09/2026 01 PM PDT 3.84 138 0 Normal
05/09/2026 02 PM PDT 3.84 138 0 Normal
05/09/2026 03 PM PDT 3.83 137 - Normal
05/09/2026 04 PM PDT 3.83 137 0 Normal
05/09/2026 05 PM PDT 3.87 142 + Normal
05/09/2026 06 PM PDT 3.87 142 0 Normal
05/09/2026 07 PM PDT 3.87 142 0 Normal
05/09/2026 08 PM PDT 3.87 142 0 Normal
05/09/2026 09 PM PDT 3.87 142 0 Normal
05/09/2026 10 PM PDT 3.87 142 0 Normal
05/09/2026 11 PM PDT 3.87 142 0 Normal
05/10/2026 12 AM PDT 3.87 142 0 Normal
05/10/2026 01 AM PDT 3.87 142 0 Normal
05/10/2026 02 AM PDT 3.88 143 + Normal
05/10/2026 03 AM PDT 3.87 142 - Normal
05/10/2026 04 AM PDT 3.87 142 0 Normal
05/10/2026 05 AM PDT 3.88 143 + Normal
05/10/2026 06 AM PDT 3.88 143 0 Normal
#
# FORECAST
#
# Date & Time (Local) Stage (Feet) Flow (cfs) Trend Forecast Status
# ---------------------------------------------------------------------------------
05/10/2026 07 AM PDT 3.88 143 Normal
05/10/2026 08 AM PDT 3.88 143 0 Normal
05/10/2026 09 AM PDT 3.88 143 0 Normal
05/10/2026 10 AM PDT 3.88 143 0 Normal
05/10/2026 11 AM PDT 3.88 143 0 Normal
05/10/2026 12 PM PDT 3.88 143 0 Normal
05/10/2026 01 PM PDT 3.88 143 0 Normal
05/10/2026 02 PM PDT 3.88 143 0 Normal
05/10/2026 03 PM PDT 3.88 143 0 Normal
05/10/2026 04 PM PDT 3.88 143 0 Normal
05/10/2026 05 PM PDT 3.88 143 0 Normal
05/10/2026 06 PM PDT 3.88 143 0 Normal
05/10/2026 07 PM PDT 3.88 143 0 Normal
05/10/2026 08 PM PDT 3.88 143 0 Normal
05/10/2026 09 PM PDT 3.88 143 0 Normal
05/10/2026 10 PM PDT 3.88 143 0 Normal
05/10/2026 11 PM PDT 3.88 143 0 Normal
05/11/2026 12 AM PDT 3.88 143 0 Normal
05/11/2026 01 AM PDT 3.88 143 0 Normal
05/11/2026 02 AM PDT 3.88 143 0 Normal
05/11/2026 03 AM PDT 3.88 143 0 Normal
05/11/2026 04 AM PDT 3.88 143 0 Normal
05/11/2026 05 AM PDT 3.88 143 0 Normal
05/11/2026 06 AM PDT 3.88 143 0 Normal
05/11/2026 07 AM PDT 3.88 143 0 Normal
05/11/2026 08 AM PDT 3.88 143 0 Normal
05/11/2026 09 AM PDT 3.88 143 0 Normal
05/11/2026 10 AM PDT 3.88 143 0 Normal
05/11/2026 11 AM PDT 3.88 143 0 Normal
05/11/2026 12 PM PDT 3.88 143 0 Normal
05/11/2026 01 PM PDT 3.88 143 0 Normal
05/11/2026 02 PM PDT 3.88 143 0 Normal
05/11/2026 03 PM PDT 3.87 142 - Normal
05/11/2026 04 PM PDT 3.87 142 0 Normal
05/11/2026 05 PM PDT 3.87 142 0 Normal
05/11/2026 06 PM PDT 3.87 142 0 Normal
05/11/2026 07 PM PDT 3.87 142 0 Normal
05/11/2026 08 PM PDT 3.87 142 0 Normal
05/11/2026 09 PM PDT 3.87 142 0 Normal
05/11/2026 10 PM PDT 3.87 142 0 Normal
05/11/2026 11 PM PDT 3.87 142 0 Normal
05/12/2026 12 AM PDT 3.87 142 0 Normal
05/12/2026 01 AM PDT 3.87 142 0 Normal
05/12/2026 02 AM PDT 3.87 142 0 Normal
05/12/2026 03 AM PDT 3.87 142 0 Normal
05/12/2026 04 AM PDT 3.87 142 0 Normal
05/12/2026 05 AM PDT 3.87 142 0 Normal
05/12/2026 06 AM PDT 3.87 142 0 Normal
05/12/2026 07 AM PDT 3.87 142 0 Normal
05/12/2026 08 AM PDT 3.87 142 0 Normal
05/12/2026 09 AM PDT 3.87 142 0 Normal
05/12/2026 10 AM PDT 3.87 142 0 Normal
05/12/2026 11 AM PDT 3.87 142 0 Normal
05/12/2026 12 PM PDT 3.87 142 0 Normal
05/12/2026 01 PM PDT 3.87 142 0 Normal
05/12/2026 02 PM PDT 3.87 142 0 Normal
05/12/2026 03 PM PDT 3.87 142 0 Normal
05/12/2026 04 PM PDT 3.87 142 0 Normal
05/12/2026 05 PM PDT 3.86 141 - Normal
05/12/2026 06 PM PDT 3.86 141 0 Normal
05/12/2026 07 PM PDT 3.86 141 0 Normal
05/12/2026 08 PM PDT 3.86 141 0 Normal
05/12/2026 09 PM PDT 3.86 141 0 Normal
05/12/2026 10 PM PDT 3.86 141 0 Normal
05/12/2026 11 PM PDT 3.86 141 0 Normal
05/13/2026 12 AM PDT 3.86 141 0 Normal
05/13/2026 01 AM PDT 3.86 141 0 Normal
05/13/2026 02 AM PDT 3.86 141 0 Normal
05/13/2026 03 AM PDT 3.86 141 0 Normal
05/13/2026 04 AM PDT 3.86 141 0 Normal
05/13/2026 05 AM PDT 3.86 141 0 Normal
05/13/2026 06 AM PDT 3.86 141 0 Normal
05/13/2026 07 AM PDT 3.86 141 0 Normal
05/13/2026 08 AM PDT 3.86 141 0 Normal
05/13/2026 09 AM PDT 3.86 141 0 Normal
05/13/2026 10 AM PDT 3.86 141 0 Normal
05/13/2026 11 AM PDT 3.86 141 0 Normal
05/13/2026 12 PM PDT 3.86 141 0 Normal
05/13/2026 01 PM PDT 3.86 141 0 Normal
05/13/2026 02 PM PDT 3.86 141 0 Normal
05/13/2026 03 PM PDT 3.86 141 0 Normal
05/13/2026 04 PM PDT 3.86 141 0 Normal
05/13/2026 05 PM PDT 3.86 141 0 Normal
05/13/2026 06 PM PDT 3.86 141 0 Normal
05/13/2026 07 PM PDT 3.86 141 0 Normal
05/13/2026 08 PM PDT 3.86 141 0 Normal
05/13/2026 09 PM PDT 3.86 141 0 Normal
05/13/2026 10 PM PDT 3.86 141 0 Normal
05/13/2026 11 PM PDT 3.86 141 0 Normal
05/14/2026 12 AM PDT 3.86 141 0 Normal
05/14/2026 01 AM PDT 3.86 141 0 Normal
05/14/2026 02 AM PDT 3.86 141 0 Normal
05/14/2026 03 AM PDT 3.86 141 0 Normal
05/14/2026 04 AM PDT 3.86 141 0 Normal
05/14/2026 05 AM PDT 3.86 141 0 Normal
05/14/2026 06 AM PDT 3.86 141 0 Normal
05/14/2026 07 AM PDT 3.86 141 0 Normal
05/14/2026 08 AM PDT 3.86 141 0 Normal
05/14/2026 09 AM PDT 3.86 141 0 Normal
05/14/2026 10 AM PDT 3.86 141 0 Normal
05/14/2026 11 AM PDT 3.86 141 0 Normal
05/14/2026 12 PM PDT 3.86 141 0 Normal
05/14/2026 01 PM PDT 3.86 141 0 Normal
05/14/2026 02 PM PDT 3.86 141 0 Normal
05/14/2026 03 PM PDT 3.86 141 0 Normal
05/14/2026 04 PM PDT 3.86 141 0 Normal
05/14/2026 05 PM PDT 3.86 141 0 Normal
05/14/2026 06 PM PDT 3.85 139 - Normal
05/14/2026 07 PM PDT 3.85 139 0 Normal
05/14/2026 08 PM PDT 3.85 139 0 Normal
05/14/2026 09 PM PDT 3.85 139 0 Normal
05/14/2026 10 PM PDT 3.85 139 0 Normal
05/14/2026 11 PM PDT 3.85 139 0 Normal
05/15/2026 12 AM PDT 3.85 139 0 Normal
05/15/2026 01 AM PDT 3.85 139 0 Normal
05/15/2026 02 AM PDT 3.85 139 0 Normal
05/15/2026 03 AM PDT 3.85 139 0 Normal
05/15/2026 04 AM PDT 3.85 139 0 Normal
05/15/2026 05 AM PDT 3.85 139 0 Normal
#
# NOTE 1: Stages are rounded to the nearest hundredth (.01) of a foot.
# NOTE 2: Flows are rounded to the nearest (1) cfs.
# NOTE 3: Trends are determined using hourly change in unrounded stage and flow.
# NOTE 4: Maximum Values are determined using unrounded stage and flow.
|